Jamtogel
Mega389
Judi Poker
Domino Qiu Qiu
nagapoker

Jackpot

Texas Poker Multi Jackpot System

Kini Telah hadir Jackpot SUPER ROYAL FLUSH

Kini Telah hadir Jackpot 2000 (khusus table VIP keatas).

Ikutilah global jackpot yang tersedia di system kami, dengan system jackpot terbaru dan pertama di indonesia, anda dapat membeli jackpot dengan harga 100 rupiah saja dan menangkan hadiahnya hingga puluhan juta rupiah.

Jackpot bukanlah suatu keharusan untuk dibeli, namun kami memberikan suatu fitur tambahan untuk member tercinta dari www.emasdewa.com.

Terdapat tiga pilihan harga jackpot yang bisa anda beli yaitu :100,500,1000 dan 2000(khusus table VIP Keatas) rupiah.

Hadiah dari Multi jackpot system www.emasdewa.com

  1. full house x 10 harga jackpot yang anda beli.
      (contoh:anda membeli 1000 maka:1000 X10 = 10.000)
  2. four of kind x 250 harga jackpot yang anda beli
      (contoh:anda membeli 1000 maka:1000 X250 = 250.000)
  3. Straight flush x 1200
      (contoh:anda membeli 1000 maka:1000 X1200 = 1.200.000)
  4. Royal flush x 10000 harga jackpot yang anda beli
      (contoh:anda membeli 1000 maka:1000 X10000 = 10.000.000)
  5. SUPER ROYAL FLUSH x 30000 harga jackpot yang anda beli
      (contoh:anda membeli 1000 maka:1000 X30000 = 30.000.000)

Kondisi kartu

  1. full house adalah kondisi kartu dimana kartu anda dan kartu tengah dengan total 7 kartu bisa mendapatkan nilai 5 kartu dengan kombinasi 1 tris(three of kind) dan 1 pair, contoh 3 kartu 10 dan 2 kartu 5
  2. Four of kind adalah kondisi kartu dimana kartu anda dan kartu tengah dengan total 7 kartu bisa mendapatkan nilai 5 kartu dengan kombinasi 4 kartu yang sama jumlah dan 1 kartu apapun juga contoh anda mendapatkan 4 buah kartu angka 3 dan 1 kartu apapun.
  3. Staright flush adalah kondisi kartu dimana kartu anda dan kartu tengah dengan total 7 kartu bisa mendapatkan nilai 5 kartu dengan kombinasi seri / staright dengan kembang yang sama contoh : urutan kartu dari angka 5, 6, 7, 8 , 9 10 dengan kembang yg sama misalnya as hati
  4. Royal flush adalah kondisi kartu dimana kartu anda dan kartu tengah dengan total 7 kartu bisa mendapatkan nilai 5 kartu dengan kombinasi seri / staright dengan kembang yang sama tetapi kartu tersebut haruslah dimulai dari 10. contoh 10, Queen, Jack, King dan aces dengan kembang yang sama
  5. Super Royal flush adalah kondisi kartu dimana Kedua kartu anda digabung dengan 3 kartu pertama meja haruslah royal flush. contoh kartu anda 10,Queen kembang sama dan 3 kartu pertama meja adalah Jack, King dan aces dengan kembang yang sama

Demikian adalah penjelasan dari Multi Jackpot www.emasdewa.com terima kasih dan selamat bermain salam hoki dari kami

Texas Poker Jackpot Winner

TOP SUPER ROYAL FLUSH
No.TanggalNamaPriceWin
119/01 11:40FAUZI029Super Royal flush3,000,000
219/01 10:17GWEEN88Super Royal flush6,000,000
319/01 06:54KHEDZGJ6H7Super Royal flush3,000,000
419/01 02:50POWER7890Super Royal flush15,000,000
519/01 02:15KEKET1455Super Royal flush15,000,000
TOP ROYAL FLUSH
No.TanggalNamaPriceWin
119/01 11:56C8F6A2B2Royal flush5,000,000
219/01 11:11SONICZARoyal flush1,000,000
319/01 11:10BEJANORoyal flush5,000,000
419/01 10:53KUBAM8877Royal flush1,000,000
519/01 10:53COMBROKU07Royal flush2,000,000
TOP STRAIGHT FLUSH
No.TanggalNamaPriceWin
119/01 11:59C5DC7DDCStraight Flush600,000
219/01 11:58BATI23Straight Flush120,000
319/01 11:55WONU88Straight Flush60,000
419/01 11:52JEFRYYY1Straight Flush1,200,000
519/01 11:49RUHI00Straight Flush120,000
LATEST JACKPOT
No.TanggalNamaPriceWin
119/01 12:08NVR99Full House10,000
219/01 12:08IMM2509Full House10,000
319/01 12:08CPZ3X1Four Of A Kind50,000
419/01 12:08ARIE8181Full House10,000
519/01 12:08CAENBOZFull House5,000
619/01 12:07SUMINTHAFull House1,000
719/01 12:07E3FB7B36Full House20,000
819/01 12:07LAMBASSFull House20,000
919/01 12:07ISMANDWFull House2,000
1019/01 12:07PRANAKA22Full House2,000
1119/01 12:07BAHO_79Full House5,000
1219/01 12:07KURIPAN11Full House1,000
1319/01 12:07AMB88533Full House2,000
1419/01 12:07MENGH4YALFull House5,000
1519/01 12:07BRAMA12Full House5,000
1619/01 12:07AKUL77Full House2,000
1719/01 12:07ISLAAFull House5,000
1819/01 12:07KULAUASAMFull House10,000
1919/01 12:07BDA0OSLMVBFull House5,000
2019/01 12:07DEWANOTFull House5,000
2119/01 12:07HELEN56Full House10,000
2219/01 12:07SELESSTEFull House1,000
2319/01 12:07CASH20Full House1,000
2419/01 12:07SULTAN1605Full House5,000
2519/01 12:07M4GNUM123Four Of A Kind25,000
2619/01 12:07MATASEWUFull House5,000
2719/01 12:07BODONKCSFull House10,000
2819/01 12:07CICIKALFINFull House2,000
2919/01 12:07XLUIWFGLZWFull House10,000
3019/01 12:07ZXCV55Full House5,000
3119/01 12:07PAKUALAM77Full House2,000
3219/01 12:07RPG1Full House10,000
3319/01 12:07BEAST2507Full House5,000
3419/01 12:07KADUTONTAFull House2,000
3519/01 12:07FYNJLBE3H0Full House5,000
3619/01 12:07BUBUK336Full House5,000
3719/01 12:07DARG77Full House5,000
3819/01 12:07C1NTH4Full House2,000
3919/01 12:07NADIRA212Full House2,000
4019/01 12:07SAVAGE04Full House5,000
4119/01 12:07IHPARAHFull House2,000
4219/01 12:07D4NIL23Full House1,000
4319/01 12:07CATHARIFull House5,000
4419/01 12:07SUSANWAFull House10,000
4519/01 12:07BACH0707Full House1,000
4619/01 12:07BAYUCCDFull House2,000
4719/01 12:07LUNGSET6Four Of A Kind25,000
4819/01 12:07JW31Full House20,000
4919/01 12:07LOROGFull House2,000
5019/01 12:07RIXO85Full House1,000

Domino Multi Jackpot System

Ikutilah global jackpot yang tersedia di system kami, dengan system jackpot terbaru dan pertama di indonesia, anda dapat membeli jackpot dengan harga 100 rupiah saja dan menangkan hadiahnya hingga puluhan juta rupiah.

Jackpot bukanlah suatu keharusan untuk dibeli, namun kami memberikan suatu fitur tambahan untuk member tercinta dari www.emasdewa.com.

Terdapat tiga pilihan harga jackpot yang bisa anda beli yaitu :100,500 dan 1000 rupiah.

Hadiah dari Multi jackpot system www.emasdewa.com

  1. Murni Kecil x 50 harga jackpot yang anda beli.
      (contoh:anda membeli 1000 maka:1000 X 50 = 50.000)
  2. Murni Besar x 50 harga jackpot yang anda beli
      (contoh:anda membeli 1000 maka:1000 X 50 = 50.000)
  3. BALAK x 100 harga jackpot yang anda beli
      (contoh:anda membeli 1000 maka:1000 X 100 = 100.000)
  4. ENAM DEWA x 6666 harga jackpot yang anda beli
      (contoh:anda membeli 1000 maka:1000 X 6666 = 6.666.000)

Demikian adalah penjelasan dari Multi Jackpot www.emasdewa.com terima kasih dan selamat bermain salam hoki dari kami

Domino Jackpot Winner

TOP ENAM DEWA
No.TanggalNamaPriceWin
119/01 09:50D_DENISmurni enam3,333,000
219/01 06:06ANGIN79murni enam666,600
319/01 05:46CBONQ03murni enam3,333,000
419/01 04:13AMIENSAmurni enam6,666,000
519/01 02:56JIMBO44murni enam3,333,000
TOP BALAK
No.TanggalNamaPriceWin
119/01 12:05BEBEC98balak100,000
219/01 12:01ANDREOObalak50,000
319/01 11:59RF998balak50,000
419/01 11:55MAHES0586balak50,000
519/01 11:54VLPQUGIKPQbalak50,000
LATEST JACKPOT
No.TanggalNamaPriceWin
119/01 12:06COOL98murni besar50,000
219/01 12:06IDP1994lucky9950,000
319/01 12:05TRI1510murni besar25,000
419/01 12:05BEBEC98balak100,000
519/01 12:05PRAY18murni kecil50,000
619/01 12:04F3L3K3R689murni besar25,000
719/01 12:04B4_12_0Nmurni kecil5,000
819/01 12:03TEMPANG02murni kecil50,000
919/01 12:03SJSKSJHS45murni besar50,000
1019/01 12:02RESTU776lucky9925,000
1119/01 12:01ANDREOObalak50,000
1219/01 12:00NURS98murni kecil50,000
1319/01 11:59RF998balak50,000
1419/01 11:59SPTBTT36murni kecil50,000
1519/01 11:58GVGVVmurni besar5,000
1619/01 11:57DEWWIQQmurni besar50,000
1719/01 11:57AMIENSAmurni kecil25,000
1819/01 11:55MAHES0586balak50,000
1919/01 11:55KIKOKEKImurni besar50,000
2019/01 11:54VLPQUGIKPQbalak50,000
2119/01 11:54REPZPOKERmurni besar50,000
2219/01 11:53SLOKI33balak100,000
2319/01 11:53SIKOSODOmurni kecil5,000
2419/01 11:53MUF26murni besar25,000
2519/01 11:52ABABAK24murni besar25,000
2619/01 11:52CAQIL44murni besar25,000
2719/01 11:52VHY86murni besar50,000
2819/01 11:52TANTESEXSmurni kecil25,000
2919/01 11:52BERKAH6666murni kecil5,000
3019/01 11:51FUKPOKER99murni besar50,000
3119/01 11:51ANAM1712murni besar50,000
3219/01 11:50WDRAW365lucky9910,000
3319/01 11:50OK9OKmurni besar25,000
3419/01 11:49LAANOWULU1murni kecil50,000
3519/01 11:49GVGVVmurni besar5,000
3619/01 11:49SIJAYA17murni kecil25,000
3719/01 11:49ANTOLLLbalak100,000
3819/01 11:49BAB55E6Dmurni besar25,000
3919/01 11:49SANMA14murni kecil50,000
4019/01 11:49M4D3_99murni kecil5,000
4119/01 11:48HBS56VB8VGmurni kecil25,000
4219/01 11:48RORY28lucky9950,000
4319/01 11:47YD0X33PQNXmurni besar25,000
4419/01 11:47ABOE999murni besar50,000
4519/01 11:47KECREKJPlucky992,500
4619/01 11:46PETHOR23murni besar25,000
4719/01 11:45RAGAP304murni besar5,000
4819/01 11:45SAHDY168murni besar25,000
4919/01 11:45PKCR0X1NLHbalak10,000
5019/01 11:45AMIENSAmurni besar25,000

Ceme Multi Jackpot System

Jackpot dilihat dari gabungan kartu pemain dengan kartu bandar. Bandar harus membeli jackpot sebanyak jumlah player yang sedang duduk. Sebagai contoh bila terdapat 3 pemain duduk bermain, dan bandar memutuskan untuk membeli jackpot Rp 1.000, maka pada periode tersebut bandar akan membeli jackpot sebanyak 3xRp1.000 = Rp3.000.

Jackpot bukanlah suatu keharusan untuk dibeli, namun kami memberikan suatu fitur tambahan untuk member tercinta dari www.emasdewa.com.

Terdapat tiga pilihan harga jackpot yang bisa anda beli yaitu :100,500 dan 1000 rupiah.

Hadiah dari Multi jackpot system www.emasdewa.com

  1. Murni Kecil x 50 harga jackpot yang anda beli.
      (contoh:anda membeli 1000 maka:1000 X 50 = 50.000)
  2. Murni Besar x 50 harga jackpot yang anda beli
      (contoh:anda membeli 1000 maka:1000 X 50 = 50.000)
  3. BALAK x 200 harga jackpot yang anda beli
      (contoh:anda membeli 1000 maka:1000 X 200 = 200.000)
  4. ENAM DEWA x 6666 harga jackpot yang anda beli
      (contoh:anda membeli 1000 maka:1000 X 6666 = 6.666.000)

Demikian adalah penjelasan dari Multi Jackpot www.emasdewa.com terima kasih dan selamat bermain salam hoki dari kami

Ceme Jackpot Winner

TOP ENAM DEWA
No.TanggalNamaPriceWin
119/01 11:58PAGANmurni enam666,600
219/01 11:54ARB89269murni enam6,666,000
319/01 11:46UGIX1988murni enam3,333,000
419/01 11:46MJR132murni enam6,666,000
519/01 10:36CARKECO564murni enam3,333,000
TOP BALAK
No.TanggalNamaPriceWin
119/01 12:07HOKI_808balak200,000
219/01 12:07BETT13balak200,000
319/01 12:06ARCHER50balak200,000
419/01 12:06BADRI1212balak100,000
519/01 12:06JUPRIBOBbalak100,000
LATEST JACKPOT
No.TanggalNamaPriceWin
119/01 12:07ANDROMAX9murni kecil25,000
219/01 12:07MONDROGNmurni kecil5,000
319/01 12:07MANGCIK82murni besar5,000
419/01 12:07ALA2CAFEmurni kecil50,000
519/01 12:07BP881445murni kecil50,000
619/01 12:07HOKI_808balak200,000
719/01 12:07ALFI1111murni kecil25,000
819/01 12:07BETT13balak200,000
919/01 12:06LF31AJ8T3Kmurni besar25,000
1019/01 12:06INDARTOARImurni kecil50,000
1119/01 12:06WANTO81639murni kecil50,000
1219/01 12:06JOYA12345murni kecil50,000
1319/01 12:06MINAH_AJAmurni kecil25,000
1419/01 12:06THEVAY8murni kecil5,000
1519/01 12:06ARCHER50balak200,000
1619/01 12:06BADRI1212balak100,000
1719/01 12:06JUPRIBOBbalak100,000
1819/01 12:06HBECUQE4MUmurni besar5,000
1919/01 12:06HENIRUSmurni kecil50,000
2019/01 12:05JUANFABIOmurni kecil25,000
2119/01 12:05AARCADA859murni kecil5,000
2219/01 12:05HIMATULmurni kecil50,000
2319/01 12:05BRENDOLL72murni kecil50,000
2419/01 12:05BAMZ1982murni kecil5,000
2519/01 12:05TEMPEKTUO1murni besar50,000
2619/01 12:04ERWIN414balak200,000
2719/01 12:04TRESNA89balak100,000
2819/01 12:04DEINIETmurni besar25,000
2919/01 12:04BRENDOLL72murni besar50,000
3019/01 12:04YULII14murni kecil50,000
3119/01 12:04HALIMM94balak20,000
3219/01 12:04FUKYUNG85murni kecil5,000
3319/01 12:04PF24US59P8murni kecil5,000
3419/01 12:04PEKSA2017balak100,000
3519/01 12:04JAZZKU96balak200,000
3619/01 12:04AMA1812murni kecil5,000
3719/01 12:04BISPAK234Mbalak200,000
3819/01 12:04DEDETBJXbalak200,000
3919/01 12:04DEDETBJXmurni besar50,000
4019/01 12:04LPASMA112murni besar50,000
4119/01 12:03ANDILIA2murni kecil5,000
4219/01 12:03VHIIE69murni kecil50,000
4319/01 12:03BXG44G11BDmurni kecil50,000
4419/01 12:03SERVIS03murni kecil25,000
4519/01 12:03NDANPOM88murni kecil25,000
4619/01 12:03LAKSANA36balak200,000
4719/01 12:03KALMAR01murni kecil50,000
4819/01 12:03ATIONK88murni besar25,000
4919/01 12:03MASJOYO99murni kecil50,000
5019/01 12:03AJIBUNT86murni besar50,000